GFSNGP_sfc_30mbdewp_021.txt.gz
Dewpoint
25 24 23 23 21 21 18 18 16 15 15 17 19 21 22 25 31 31 33 36 42 46 53 56 56 58 59 60 62 63 66 66 68 69 70 70 71 71 71 71 71 71 71 71
22 21 21 21 22 22 21 20 19 18 17 18 22 24 25 22 23 26 32 31 36 44 51 54 56 58 59 60 61 64 66 66 67 69 70 70 71 71 71 71 71 71 71 71
18 22 22 19 20 20 20 21 20 17 18 20 19 20 24 26 29 29 29 30 32 39 47 54 55 58 59 61 62 64 65 66 67 68 69 70 71 71 71 71 71 71 71 71
17 21 16 19 23 28 26 23 20 19 19 20 21 25 28 28 27 29 30 31 35 35 43 54 54 54 58 60 63 65 66 67 68 68 69 70 70 70 71 71 71 71 71 71
12 15 17 19 22 36 39 26 38 42 29 22 21 23 28 29 30 31 31 34 37 36 38 51 54 57 60 61 64 65 66 67 68 69 69 70 70 70 70 71 71 71 71 71
17 9 11 20 27 42 46 29 49 52 51 48 26 21 22 28 31 29 31 33 37 40 46 51 53 54 59 60 63 65 66 67 68 69 69 69 70 71 71 71 71 70 71 71
20 18 16 21 36 51 36 30 52 53 54 55 52 32 37 48 45 55 55 44 42 50 55 58 59 56 59 60 63 64 65 67 69 70 70 70 71 72 71 71 71 71 71 71
21 18 15 23 30 30 47 52 53 54 55 56 57 58 47 55 60 63 63 60 58 61 63 64 62 62 62 63 64 66 67 68 70 70 70 70 71 72 72 71 71 71 71 71
22 17 24 31 38 47 53 53 54 55 56 57 58 57 57 60 61 61 60 61 65 64 63 64 65 65 65 67 66 66 67 68 70 71 71 71 72 72 71 72 70 70 70 69
27 24 28 31 37 43 51 53 54 56 57 58 59 59 59 59 57 56 55 54 54 56 58 60 62 63 64 64 69 68 67 68 70 70 71 72 71 71 71 71 71 70 70 70
31 33 34 31 33 42 50 52 55 56 56 56 57 57 56 56 56 57 57 57 58 60 61 61 62 62 62 62 62 61 65 68 67 68 69 70 71 71 71 71 71 70 70 71
28 33 38 39 44 48 49 53 55 55 57 58 58 58 58 58 60 60 61 63 63 64 64 63 61 61 62 64 63 62 61 60 61 63 65 67 69 72 66 64 69 69 70 71
37 39 41 43 45 46 49 55 56 57 59 59 59 59 58 58 60 60 61 61 61 62 63 64 64 65 66 66 65 64 63 63 63 67 65 64 68 70 68 65 61 67 68 66
39 40 38 43 43 48 54 56 56 58 57 57 57 59 60 59 59 60 60 61 61 61 62 63 64 62 64 66 63 64 62 63 65 61 61 64 66 67 68 65 66 60 59 61
42 41 41 45 47 52 55 56 54 52 52 51 53 55 56 57 57 58 60 60 59 58 59 59 61 63 64 65 63 62 61 63 63 60 59 57 56 56 57 62 65 60 55 56
43 45 45 47 49 50 54 53 51 51 51 51 52 54 55 55 55 55 56 58 58 58 59 59 59 61 63 64 64 63 63 61 62 63 61 61 60 58 56 57 59 59 59 56
43 43 47 49 49 52 53 53 53 53 53 54 54 54 53 53 52 51 53 54 55 55 57 59 60 61 61 63 64 63 62 62 61 62 62 61 60 60 58 57 55 58 60 55
48 49 46 48 50 52 53 53 53 54 53 52 50 49 48 48 48 49 51 51 52 54 55 58 60 62 62 61 62 63 62 62 62 61 61 60 60 60 59 60 60 58 55 53
50 50 49 52 54 54 54 54 54 52 50 48 47 47 48 47 48 49 49 50 51 52 54 57 59 59 60 59 61 60 61 61 61 61 61 60 60 60 59 58 56 56 56 57
47 49 50 50 51 51 50 50 49 48 47 47 47 47 47 48 49 48 48 48 49 50 51 52 55 55 57 57 58 58 58 58 59 60 60 60 61 60 59 57 57 58 58 59
45 45 45 46 45 44 43 44 41 41 43 45 46 47 47 46 46 46 45 44 45 47 48 49 49 50 51 53 53 54 54 55 55 55 55 57 58 59 58 58 58 58 56 57
44 43 43 43 43 42 42 41 41 41 43 44 44 44 43 43 42 40 40 40 40 42 43 44 46 49 48 47 49 50 51 51 50 52 55 56 56 56 56 56 56 55 55 56
40 41 40 38 38 39 38 39 40 39 38 39 39 38 37 36 36 36 35 36 37 39 39 40 43 45 47 47 47 46 46 47 48 48 47 47 47 50 52 50 52 55 55 55
38 38 38 38 37 36 36 36 36 36 37 36 36 36 36 34 33 32 32 33 33 34 37 40 42 42 41 43 44 47 47 47 45 44 43 42 43 42 43 46 46 45 47 48
36 37 37 37 35 34 34 33 33 32 33 33 32 32 32 32 31 31 31 31 32 32 33 37 40 40 39 39 38 39 41 44 46 46 45 44 42 41 41 41 41 42 43 44
32 33 35 36 34 33 32 31 30 30 29 28 27 26 26 26 26 26 26 27 27 28 29 30 33 35 36 37 37 36 36 36 38 42 44 46 45 44 43 42 41 41 41 40
25 30 32 32 32 30 30 29 28 27 26 25 24 25 24 24 24 23 24 23 23 24 24 25 26 27 28 31 32 34 35 35 34 34 34 36 39 41 43 43 43 43 43 43

GFSNGP_sfc_30mbdewp_024.txt.gz
Dewpoint
26 25 23 20 18 18 17 17 15 13 15 16 17 19 22 23 24 23 28 33 37 44 47 51 52 57 62 61 60 60 64 64 68 70 72 72 72 73 73 73 73 73 73 73
25 24 23 21 22 20 19 19 19 18 18 19 20 23 23 23 24 24 24 24 24 31 45 48 52 56 57 61 60 62 64 65 67 70 72 72 73 73 73 73 73 74 73 73
21 23 22 21 21 21 21 22 21 20 22 22 22 22 22 22 22 22 26 27 29 31 36 42 44 53 56 59 61 63 65 67 68 70 72 72 73 73 73 73 73 73 73 73
20 23 20 21 22 23 22 22 22 22 23 23 23 24 25 25 24 24 24 27 29 29 27 31 41 40 53 58 63 64 67 68 69 70 71 72 73 73 73 73 73 73 73 73
18 19 20 20 21 22 23 22 23 24 26 25 25 23 23 24 24 27 30 30 30 30 31 37 39 43 49 57 61 63 67 68 69 70 70 71 72 73 73 73 73 73 73 73
16 16 15 19 20 32 30 27 30 39 38 41 44 34 25 25 24 26 28 31 32 32 36 38 44 46 51 56 59 64 66 67 69 70 70 71 72 73 73 73 72 71 72 73
16 15 16 18 31 41 28 39 47 46 47 50 49 47 50 53 49 45 43 42 42 41 40 44 50 51 51 56 58 63 65 65 68 70 71 71 72 73 73 72 71 72 72 73
15 14 12 17 21 27 41 47 46 47 50 52 54 56 57 57 57 51 48 49 54 47 48 55 59 59 57 61 61 64 65 65 68 70 70 69 72 73 72 72 72 72 72 72
17 15 19 21 24 31 34 37 45 44 45 50 53 56 58 58 56 54 55 57 58 54 60 63 64 63 63 64 64 65 66 67 68 69 70 70 72 72 71 72 70 70 69 70
20 19 24 27 28 29 33 37 38 43 44 49 51 56 59 59 58 59 58 59 60 61 62 64 67 68 69 68 68 68 68 69 69 70 70 70 70 70 70 69 70 69 68 69
27 27 24 24 28 31 33 39 43 44 48 53 55 57 59 58 59 58 58 59 61 61 62 63 63 63 63 64 65 68 68 68 69 69 70 70 71 68 68 69 68 69 69 68
25 25 26 27 30 39 40 42 44 45 49 54 58 59 59 60 61 62 63 64 64 65 64 62 63 64 66 66 66 64 61 59 59 60 61 65 66 68 67 67 67 66 66 69
30 32 32 34 36 38 40 40 41 45 53 58 59 59 60 60 61 62 63 63 63 64 64 65 65 64 65 66 65 65 63 64 62 64 62 61 62 63 63 67 69 68 67 66
36 36 37 36 36 38 41 43 44 50 58 59 60 60 60 61 61 60 61 61 62 62 63 64 64 63 65 64 64 64 64 64 62 61 62 64 65 65 65 65 65 66 66 64
38 39 39 39 39 40 45 49 52 55 55 55 61 60 59 59 59 59 59 58 59 60 60 60 61 63 65 65 64 63 61 61 60 58 58 58 59 59 57 58 60 61 59 58
41 41 41 42 41 43 45 49 48 54 55 56 58 58 58 57 56 56 56 57 56 58 60 61 61 61 63 64 63 63 63 61 61 60 60 60 60 59 56 57 59 60 58 56
41 41 43 44 43 45 49 48 51 54 55 56 57 54 53 53 52 53 54 56 57 58 60 60 62 62 61 62 63 61 62 62 61 62 60 61 60 58 58 57 55 58 59 58
44 46 47 48 48 48 49 55 55 54 52 51 50 52 52 53 53 54 55 55 56 56 57 58 60 61 60 61 59 60 62 61 62 61 60 60 61 60 60 60 60 58 57 58
49 49 51 50 50 51 51 50 51 52 50 49 50 50 50 50 51 52 52 52 52 52 53 55 56 57 57 57 57 56 56 59 60 61 61 60 60 59 59 58 58 57 58 57
47 47 46 46 46 47 47 49 50 50 51 49 49 48 49 49 48 48 47 47 48 48 50 51 53 54 55 54 54 54 55 56 56 57 58 58 58 59 59 58 58 58 58 59
45 46 45 44 44 46 46 48 48 47 49 50 48 45 43 42 43 43 42 41 43 46 46 48 49 48 49 50 51 52 52 53 54 56 56 57 57 57 57 56 56 57 58 58
43 44 44 43 43 43 43 43 43 45 44 43 42 41 41 41 40 39 40 40 40 42 42 43 45 46 47 47 47 47 47 47 49 49 48 51 52 52 53 53 53 53 53 54
40 40 42 42 41 40 40 42 40 40 39 39 39 37 36 34 34 34 33 35 37 39 40 40 42 43 41 43 45 46 47 46 44 43 44 44 44 48 48 48 49 49 48 48
39 38 37 37 38 38 38 38 37 37 36 36 35 34 34 33 32 32 32 32 33 34 35 37 38 39 38 38 38 40 42 45 46 46 44 42 41 41 41 43 45 46 46 46
35 36 36 34 33 34 34 33 32 32 31 31 30 29 29 28 29 29 28 28 28 29 30 31 34 34 34 35 35 35 35 37 38 43 45 45 45 45 44 43 42 41 41 43
32 33 33 34 32 31 31 30 29 29 28 28 27 26 26 25 25 25 25 24 24 24 25 25 25 27 29 31 32 34 34 34 34 34 35 37 38 39 41 40 42 43 43 43
22 27 29 30 30 29 28 28 27 26 26 25 24 24 24 23 22 21 21 20 20 20 20 20 20 21 23 24 27 28 29 30 31 33 34 34 35 35 35 36 35 35 35 35

GFSNGP_sfc_30mbdewp_030.txt.gz
Dewpoint
23 23 21 17 16 17 16 18 16 13 13 22 24 26 26 30 34 34 37 41 45 47 53 55 57 61 62 62 63 64 66 70 71 72 73 73 73 73 74 73 73 74 73 74
28 26 25 23 17 16 15 14 15 15 14 22 27 29 30 32 31 31 34 37 39 41 43 47 58 61 62 62 63 64 65 66 69 71 72 74 73 74 74 74 74 74 74 74
28 29 27 24 22 18 16 14 15 16 18 23 26 27 28 28 28 28 29 29 31 37 40 44 49 61 63 63 64 65 66 67 68 70 71 73 74 74 74 74 74 74 74 74
28 28 25 27 26 25 18 16 16 18 20 25 28 30 29 29 28 28 28 30 33 30 34 37 41 47 56 63 65 65 67 67 70 71 71 72 73 74 74 74 75 74 75 75
27 27 28 27 27 25 23 21 19 19 21 26 27 28 29 29 29 30 32 35 35 33 34 39 42 46 53 55 65 66 66 68 68 72 71 72 73 74 74 75 75 75 75 75
26 25 23 27 26 25 24 23 41 30 26 26 26 24 45 53 53 53 53 54 54 52 51 43 47 41 46 56 61 65 66 67 69 69 71 72 73 74 75 75 75 75 75 75
22 24 27 35 30 27 23 41 46 44 39 36 42 50 52 51 53 55 55 54 54 54 53 55 57 53 55 52 54 64 66 67 70 72 71 72 73 75 75 75 75 75 75 75
20 22 26 28 31 35 42 40 41 43 43 45 45 46 48 50 52 56 57 56 53 52 51 54 55 55 54 57 61 62 65 68 71 72 72 72 73 75 75 75 75 74 75 75
21 21 30 27 27 30 31 34 34 37 37 39 43 44 48 51 54 59 58 57 59 59 59 61 61 66 65 67 67 66 69 70 70 73 73 72 74 74 74 75 74 74 74 73
23 25 25 25 26 27 29 30 31 32 34 43 44 44 46 52 55 60 62 60 59 60 61 68 71 71 70 71 68 68 70 72 72 73 74 74 73 74 74 73 73 73 72 72
25 23 23 24 26 27 28 29 29 31 34 41 42 42 45 50 56 58 62 66 67 66 65 67 68 68 68 69 71 70 69 71 72 72 73 73 73 71 73 73 71 71 72 71
22 26 30 31 30 27 27 28 29 30 34 39 40 41 43 52 58 60 61 63 66 67 65 67 68 68 68 69 69 70 71 71 70 69 71 71 72 72 71 70 66 63 62 65
34 37 37 34 32 31 32 33 30 30 32 36 38 38 40 49 58 60 62 63 63 66 66 66 66 65 66 67 68 68 67 66 63 62 64 71 70 71 71 65 61 59 58 56
35 36 36 38 35 35 35 36 38 38 37 35 35 38 37 50 57 60 62 63 65 65 65 65 65 66 66 67 68 65 65 62 62 62 63 63 62 61 61 60 62 62 60 58
38 37 36 38 38 37 37 38 38 37 37 38 39 46 47 51 57 61 63 64 64 64 64 64 64 64 65 67 66 65 64 63 61 60 61 61 62 61 60 59 61 61 60 59
38 38 38 38 39 37 37 37 36 38 37 38 40 47 49 52 58 62 62 62 62 62 62 62 63 63 65 65 64 62 61 60 61 62 62 61 61 60 59 59 58 60 59 57
39 39 39 40 39 39 37 37 38 38 39 39 43 52 55 56 60 61 60 61 60 60 59 61 62 63 62 62 61 61 61 62 61 61 61 61 61 60 60 60 60 60 59 57
42 41 41 42 41 42 42 42 42 45 45 50 53 56 57 58 57 56 57 58 58 57 56 57 59 58 58 60 61 61 61 60 60 60 60 60 59 59 59 59 59 59 59 59
45 47 47 48 49 48 47 48 49 49 49 49 50 49 50 50 50 50 49 47 47 48 49 55 55 55 55 56 57 58 58 58 58 58 57 58 58 57 57 58 57 56 56 57
45 45 45 45 46 48 48 48 47 47 47 47 46 45 46 48 48 47 46 45 46 45 44 45 48 53 53 53 53 55 56 55 55 54 54 54 54 54 53 52 52 52 53 53
45 45 44 44 44 45 47 46 45 45 45 46 45 44 43 44 45 45 44 44 46 47 42 41 43 47 50 48 49 49 50 51 50 49 49 51 50 50 50 49 50 50 50 50
44 45 45 45 44 44 44 44 46 46 45 44 44 45 45 44 44 43 43 42 44 45 44 42 41 43 47 49 48 47 47 46 45 46 47 46 46 47 47 48 48 48 48 48
39 41 41 43 43 44 43 43 43 42 41 42 42 41 40 39 36 36 36 39 37 35 35 35 38 39 39 41 43 44 46 46 46 46 46 46 46 47 47 47 46 47 47 48
36 36 38 38 37 37 37 36 37 38 39 38 37 35 35 32 30 29 28 26 29 27 26 28 32 33 35 36 37 37 37 39 41 42 42 41 42 43 42 42 42 43 44 43
30 34 34 33 33 34 34 34 33 31 31 31 31 31 28 28 28 25 25 24 22 22 22 23 25 28 29 31 32 33 34 33 35 37 37 38 38 37 36 35 35 35 35 35
27 26 30 31 28 27 27 28 27 27 27 27 26 25 23 22 22 23 23 22 21 20 20 20 21 21 23 24 25 26 27 26 28 31 34 35 36 35 36 36 36 36 36 35
25 24 25 25 25 25 24 23 22 22 21 23 22 22 22 21 19 19 20 20 20 20 20 19 19 21 21 22 24 24 25 26 25 25 26 29 32 32 33 34 36 35 35 36

GFSNGP_sfc_30mbdewp_033.txt.gz
Dewpoint
30 26 25 23 18 17 16 18 17 15 20 24 27 33 36 38 37 39 41 48 51 54 57 59 59 59 60 61 63 65 70 71 72 73 73 73 73 73 73 70 72 72 73 72
31 29 26 25 19 18 16 17 19 17 17 26 33 35 33 35 35 36 44 49 51 52 56 58 60 60 60 61 62 64 67 70 71 72 72 73 73 73 73 73 71 72 72 72
29 30 30 27 27 18 18 18 18 19 20 32 34 32 31 32 31 31 31 32 41 46 54 58 60 62 62 62 63 64 65 68 70 71 72 72 73 73 72 73 73 72 71 73
30 30 27 30 31 30 19 21 18 18 29 30 36 44 43 36 31 32 36 39 41 40 37 42 58 63 62 63 64 64 64 66 67 71 72 72 73 72 73 73 73 73 73 72
28 28 30 30 31 31 25 39 44 43 33 36 47 50 53 55 56 55 54 54 55 54 55 51 45 53 64 65 66 67 65 67 68 70 71 72 72 73 73 73 73 73 74 74
25 29 28 31 33 37 35 40 43 46 45 36 47 49 51 55 57 58 58 57 55 54 53 57 56 54 60 64 64 64 67 70 71 70 71 71 72 72 73 73 73 74 73 74
22 26 36 33 35 42 35 40 41 39 44 48 49 52 53 54 57 61 61 59 55 55 53 54 58 54 53 59 64 66 67 68 70 72 72 73 72 72 73 73 74 74 74 74
22 26 32 34 31 37 38 35 37 38 41 46 47 50 55 56 59 61 64 61 61 61 61 58 56 54 57 61 64 64 66 68 69 70 71 73 73 74 74 74 74 74 74 74
29 32 33 38 35 32 34 34 33 34 35 45 45 45 49 56 57 58 63 66 67 66 66 72 72 70 66 69 70 68 68 68 69 71 72 71 73 74 74 75 74 74 74 74
28 29 29 31 32 32 32 30 31 32 36 43 43 43 43 47 58 59 60 62 65 67 68 68 69 69 69 69 70 72 67 73 72 72 73 73 74 74 75 75 74 74 74 74
24 32 31 33 39 39 34 35 32 32 33 39 42 42 42 44 58 58 58 59 63 64 67 68 69 69 69 69 69 69 71 74 73 73 73 73 73 74 74 73 74 73 73 73
29 32 36 36 38 39 38 37 37 40 36 37 40 39 38 39 55 59 59 60 61 63 65 67 67 66 66 68 68 69 71 71 72 72 73 73 73 68 60 63 62 61 66 62
35 36 36 36 36 38 39 38 37 40 40 40 39 38 39 40 51 58 60 61 62 64 67 66 66 66 66 68 68 68 68 70 70 69 71 71 72 69 60 57 53 54 56 57
39 38 37 36 36 39 40 41 41 40 40 40 41 42 48 51 55 58 60 62 63 65 65 65 65 65 67 68 67 66 66 62 65 64 63 63 65 70 62 61 60 57 56 56
42 40 39 39 38 38 40 41 40 40 39 39 40 42 43 52 52 57 60 62 64 65 65 65 64 64 65 66 63 63 62 62 61 62 63 63 62 61 63 62 61 60 58 57
41 42 40 39 38 38 40 41 40 39 39 40 40 41 49 51 54 58 61 63 62 62 63 63 64 63 65 64 63 63 62 62 63 63 63 62 62 62 62 62 61 59 58 59
43 38 38 38 38 39 40 42 42 41 41 41 42 48 50 52 55 59 61 60 57 55 58 59 59 59 63 64 62 62 62 62 61 61 60 60 60 59 59 59 59 59 59 58
45 46 45 47 46 43 42 44 48 48 50 51 51 53 53 54 55 50 49 51 50 48 46 50 57 58 60 62 61 60 59 61 60 60 59 58 58 58 57 56 55 56 56 56
43 44 44 44 47 48 46 47 48 47 47 48 49 48 48 48 47 47 47 46 46 46 45 48 52 59 60 59 59 57 57 57 57 57 56 55 54 54 54 53 53 53 53 53
42 42 43 44 44 45 46 46 46 45 45 44 44 44 44 46 47 47 46 45 46 46 48 49 51 52 58 59 58 55 54 53 53 53 53 53 52 52 51 50 50 50 50 50
42 42 41 42 43 44 44 45 45 44 45 45 43 43 43 43 43 44 44 43 45 46 47 49 50 49 49 49 50 50 49 49 50 50 49 49 49 49 48 49 49 48 48 48
43 43 42 42 42 43 44 44 43 43 43 42 43 43 42 41 42 42 43 43 43 43 45 47 49 51 50 49 48 48 47 48 48 48 47 48 48 48 48 48 48 47 46 45
42 43 43 42 41 42 42 42 41 42 42 42 42 41 41 41 40 38 39 42 40 37 38 40 44 47 47 47 47 47 49 47 45 45 46 47 46 45 46 45 44 45 45 45
35 40 38 40 39 36 36 40 41 41 40 39 37 40 39 37 37 37 34 33 32 29 29 32 34 34 37 39 39 35 36 44 45 43 41 39 38 37 36 36 37 38 37 36
34 32 33 32 35 37 35 32 30 33 32 33 30 30 29 30 28 27 28 29 29 28 25 25 27 27 29 31 29 27 27 30 37 38 39 39 38 37 36 36 36 36 35 35
31 34 31 29 28 28 28 25 23 24 27 25 24 26 24 24 22 27 27 27 25 22 22 23 26 25 26 28 28 27 27 28 30 32 34 34 33 36 38 38 38 37 36 34
27 28 27 27 28 26 25 23 23 22 25 25 26 26 24 25 24 23 23 23 24 24 23 22 24 23 24 27 28 29 29 30 30 31 32 33 32 32 34 37 36 35 34 31